Explorer 7

operational
NORAD ID: 22 Int'l Des: 1959 IOT Owner: GSFC Country: US
LEOCIRCULAR

About Explorer 7

Description loading...

Live Position

Loading 3D Globe...

Upcoming Passes

Altitude History

Altitude vs Time

uPlot chart will show altitude changes over time

Two-Line Element Set

1 00022U 59009A 25350.97759793 .00008513 00000-0 32734-3 0 9997
2 00022 50.2535 278.1189 0085858 111.3050 249.7101 15.23834334772519
Epoch: Dec 16, 2025 • Age: 7 hours

Current Status

Altitude 509.5 km
Velocity 7.60 km/s
Sub-Earth Point -23.84°S, 68.18°W
Type other

Large Constellations

Loading constellations...